UmKA 1 (RS40S)
1 57172U 23091G   26033.59986251  .00007133  00000-0  34305-3 0  9998
2 57172  97.5254  92.8479 0012249 224.4731 135.5521 15.19042422143567
CubeBel-2 (EU11S)
1 57175U 23091K   26033.62913724  .00013996  00000-0  55130-3 0  9993
2 57175  97.5251  95.8583 0009683 224.4881 135.5580 15.25677912143762
RS-38S
1 57189U 23091Z   26033.62438772  .00019380  00000-0  64052-3 0  9999
2 57189  97.5276 100.7604 0007948 182.4294 177.6909 15.31382867144062
SONATE-2
1 59112U 24043Q   26033.34415464  .00032548  00000-0  60938-3 0  9997
2 59112  97.5354 176.6628 0008295 341.7588  18.3364 15.48597965106954
MO-122
1 60209U 24125G   26033.10832757  .00034135  00000-0  59852-3 0  9996
2 60209  97.2488 248.6517 0013872   2.3165 357.8149 15.50386857 88559
GRBBeta
1 60237U 24128C   26033.24129514  .00005014  00000-0  35170-3 0  9996
2 60237  61.9923 329.3055 0054243 106.8763 253.8287 15.05364521 85949
Curium One
1 60242U 24128H   26033.53354502  .00011531  00000-0  69384-3 0  9996
2 60242  61.9811 321.8608 0054009 103.8433 256.8679 15.10029831 86108
ROBUSTA-3A
1 60243U 24128J   26033.36199560  .00009958  00000-0  61248-3 0  9990
2 60243  61.9888 324.2386 0054638 101.1705 259.5538 15.09331450 86053
CatSat
1 60246U 24125J   26033.49901565  .00042264  00000-0  87117-3 0  9990
2 60246  97.2253 245.4781 0029648 321.5066  38.4068 15.45300544 86500
HYPERVIEW-1G (RS66S)
1 61772U 24199AP  26033.63428524  .00054731  00000-0  85944-3 0  9999
2 61772  97.3152 268.9010 0011238  55.5968 304.6347 15.53416233113657
AO-123
1 61781U 24199AY  26033.64458113  .00011638  00000-0  36272-3 0  9996
2 61781  97.3206 263.5608 0015988  72.2363 288.0623 15.33280231113299
HADES-R (SO-124)
1 62690U 25009CK  26032.99082620  .05664363  23962-5  28116-2 0  9998
2 62690  97.3536 123.7794 0009923 302.1245  57.9081 16.20799086 58844
HYDRA-T
1 62692U 25009CM  26028.19742799  .10589489  24473-5  20739-2 0  9999
2 62692  97.3569 119.0624 0010828 297.3030  62.7162 16.31546071 58115
JINJUSat 1B
1 63210U 25052A   26033.46555136  .00017930  00000-0  64255-3 0  9990
2 63210  97.4172 290.3656 0002983 168.8610 191.2697 15.28790170 49487
NUSHSAT 1
1 63211U 25052B   26033.48488336  .00020357  00000-0  69767-3 0  9990
2 63211  97.4154 290.5900 0002745 170.0506 190.0789 15.30221878 49506
TEVEL2-4
1 63213U 25052D   26033.24948875  .00019550  00000-0  68804-3 0  9999
2 63213  97.4078 289.7935 0001508 177.7667 182.3580 15.29366489 49452
TEVEL2-5
1 63214U 25052E   26033.65047074  .00020491  00000-0  72281-3 0  9996
2 63214  97.4066 290.1721 0001523 175.4017 184.7237 15.29282356 49512
TEVEL2-6
1 63215U 25052F   26033.65932565  .00021171  00000-0  74762-3 0  9997
2 63215  97.4076 290.1679 0001542 180.5501 179.5738 15.29238459 49515
TEVEL2-1
1 63217U 25052H   26033.19029640  .00019019  00000-0  68033-3 0  9991
2 63217  97.4054 289.4667 0001111 210.9399 149.1776 15.28839046 49430
TEVEL2-3
1 63218U 25052J   26033.25407890  .00018909  00000-0  67575-3 0  9993
2 63218  97.4053 289.5386 0001123 211.2047 148.9127 15.28871531 49449
TEVEL2-2
1 63219U 25052K   26033.25644546  .00019284  00000-0  68965-3 0  9996
2 63219  97.4054 289.5334 0001115 215.6514 144.4652 15.28844945 49445
TEVEL2-9
1 63237U 25052AD  26033.46842004  .00017896  00000-0  67217-3 0  9994
2 63237  97.4116 289.3729 0004642 260.1127  99.9589 15.27236664 49437
TEVEL2-7
1 63238U 25052AE  26033.42253404  .00017199  00000-0  64985-3 0  9996
2 63238  97.4118 289.2891 0004709 260.5455  99.5252 15.27045891 49423
TEVEL2-8
1 63239U 25052AF  26033.23243443  .00017610  00000-0  66593-3 0  9993
2 63239  97.4114 289.0824 0004745 262.0794  97.9907 15.27014944 49397
HYDRA-W
1 63490U 25052BL  26032.70880506  .00098574  00000-0  16426-2 0  9997
2 63490  97.4021 292.5514 0002857 222.1550 137.9483 15.51649103 49591
HADES-ICM (SO-125)
1 63492U 25052BN  26033.24100884  .00091400  00000-0  17168-2 0  9998
2 63492  97.4028 292.6353 0003381 236.4820 123.6108 15.48265630 49640
Dragonfly
1 65729U 98067XH  26031.05194254  .08662331  12285-4  96629-3 0  9997
2 65729  51.6000 237.6139 0006569 265.0285  94.9990 16.36242872 20999
RSP-03
1 65732U 98067XL  26033.53360359  .00495574  10896-3  13231-2 0  9994
2 65732  51.6167 228.8006 0005263 238.7249 121.3243 15.93927715 21343
BOTAN
1 65942U 98067XP  26033.52540102  .00275567  00000-0  13749-2 0  9997
2 65942  51.6178 234.8063 0005527 226.6486 133.4055 15.80512064 18007
CEVROSAT1
1 66309U 25248S   26033.31358359  .00005924  00000-0  29226-3 0  9990
2 66309  45.4045 124.0458 0002896 342.7336  17.3451 15.18852711 13997
SPIRONE
1 66657U 25274H   26033.29598552  .00003195  00000-0  31353-3 0  9995
2 66657  97.7430 324.6378 0014059 101.0089 259.2713 14.92830065 10090
K-HERO
1 66660U 25274L   26033.54149814  .00002999  00000-0  29108-3 0  9996
2 66660  97.7432 324.9367 0015803 104.9120 255.3851 14.93304921 10136
SNUGLITE-III DURI
1 66661U 25274M   26033.33461995  .00002167  00000-0  21130-3 0  9995
2 66661  97.7428 324.7441 0016304 106.6800 253.6211 14.93408874 10104
SilverSat
1 66909U 98067XV  26033.55533074  .00111112  00000-0  12632-2 0  9999
2 66909  51.6263 243.2974 0002953 182.8938 177.2039 15.61451329  9683
SAKHACUBE-CHOLBON
1 67290U 25313AU  26033.32248154  .00010937  00000-0  48080-3 0  9994
2 67290  97.4080 110.2378 0011084 108.7981 251.4458 15.22010821  5448
QMR-KWT
1 67291U 25313AV  26033.45165791  .00015129  00000-0  65862-3 0  9999
2 67291  97.4078 110.3703 0010816 108.2860 251.9554 15.22269623  5462
IO-86
1 40931U          25360.30710720  .00000000  00000-0  12800-3 0    00
2 40931   6.0006 332.5373 0012733 338.8432   8.1437 14.79075515    01
